178  
ASUS43 KFGF 240731  
RWRFGF  
PRAIRIE TO PINES WEATHER ROUNDUP  
NATIONAL WEATHER SERVICE EASTERN NORTH DAKOTA/GRAND FORKS ND  
200 AM CDT SUN MAR 24 2019  
 
**SATELLITE DATA USED TO AUGMENT SKY COVER AT AUTOMATED STATIONS**  
***** WEATHER ACROSS EASTERN NORTH DAKOTA *****  
 
CITY SKY/WX TMP DP RH WIND PRES REMARKS
 
GRAND FORKS FAIR 32 29 88 N15 30.13R WCI 22  
GRAND FRKS AFB NOT AVBL  
DEVILS LAKE FAIR 31 29 92 NE23 30.14S WCI 18  
FARGO FOG 26 25 96 N5 30.09F VSB 1/4 WCI 20  
WAHPETON ARPT PTSUNNY 30 28 93 N7 30.10R VSB 1/2 WCI 23  

 
 
***** WEATHER ACROSS CENTRAL AND WESTERN NORTH DAKOTA *****  
 
CITY SKY/WX TMP DP RH WIND PRES REMARKS
 
BISMARCK MOCLDY 34 32 92 CALM 30.09R  
MINOT CLOUDY 36 31 82 NE15G26 30.15R  
JAMESTOWN FAIR 29 27 92 N7 30.09R WCI 22  
MINOT AFB NOT AVBL  
GARRISON N/A 37 35 92 NE5 30.08R  
WILLISTON CLOUDY 39 34 82 E16G26 30.07R  
DICKINSON FAIR 34 32 92 S9 30.02R FOG  
HETTINGER FAIR 36 34 92 CALM 30.05R  

 
 
***** OTHER AIRPORT OBSERVATIONS IN OUR AREA *****  
 
CITY SKY/WX TMP DP RH WIND PRES REMARKS
 
WALHALLA CLOUDY 30 30 100 N16 30.23R WCI 19  
GRAFTON AIRPOR CLOUDY 32 32 100 N18 30.19R WCI 20  
VALLEY CITY AR FAIR 28 28 100 N5 30.11S FOG WCI 23  
CANDO CLOUDY 32 32 100 NE22G31 30.18S WCI 19  
CAVALIER APRT CLOUDY 30 27 86 N17G23 30.20R WCI 18  
GWINNER N/A 30 28 93 CALM 30.08R  
SHEYENNE NWR N/A 26 26 100 N3 29.95S  
ROLLA CLOUDY 27 28 100 NE20G30 30.20R WCI 13  
***** THE ABOVE OBSERVATIONS ARE NON NWS ARE NOT QUALITY  
CONTROLLED AND MAY MIS-REPORT RAIN FOR SNOW...  

 
 
***** WEATHER ACROSS NORTHERN MINNESOTA *****  
 
CITY SKY/WX TMP DP RH WIND PRES REMARKS
 
FLAG ISLAND FAIR 28 19 69 NE15G23 30.18R WCI 17  
WARROAD FAIR 30 25 80 N15G21 30.17R WCI 19  
ROSEAU FAIR 28 23 80 NE13 30.15R WCI 18  
HALLOCK CLOUDY 32 30 93 N13 30.16R WCI 22  
THF RVR FALLS MOCLDY 31 30 96 N7 30.12R WCI 24  
BAUDETTE FAIR 32 27 81 NE10 30.12R WCI 24  
WASKISH FAIR 28 28 100 W6 30.10R WCI 22  
CROOKSTON FAIR 27 27 100 CALM 30.13R FOG  
STEPHEN NDAWN N/A 32 30 93 N13 N/A WCI 22  
GREENBUSH NDAW N/A 28 27 93 N8 N/A WCI 20  

 
***** WEATHER ACROSS CENTRAL AND WEST MINNESOTA *****  
 
CITY SKY/WX TMP DP RH WIND PRES REMARKS
 
FOSSTON FAIR 27 23 86 CALM 30.11R FOG  
BEMIDJI FAIR 32 29 89 NW5 30.09S  
PARK RAPIDS FAIR 33 30 88 N5 30.07R  
ELBOW LAKE FAIR 36 35 96 E6 30.08F  
WADENA CLOUDY 28 28 100 W3 30.08S FOG  
DETROIT LAKES MOCLDY 32 32 100 CALM 30.09F  
MOORHEAD FOG 27 25 93 CALM 30.10S VSB 1/2  
FERGUS FALLS FAIR 36 34 93 CALM 30.08S  
MORRIS MN CLOUDY 36 36 100 SE6 30.03F  
STAPLES FAIR 28 28 100 CALM 30.09R  

 
***** WEATHER ELSEWHERE ACROSS MINNESOTA *****  
 
CITY SKY/WX TMP DP RH WIND PRES REMARKS
 
DULUTH FAIR 38 29 70 NW13 30.05R  
INTRNTL FALLS MOCLDY 33 28 81 NE14 30.12R WCI 23  
ELY FAIR 37 28 70 NW5 30.04R  
CLOQUET FAIR 34 27 75 W7 30.07R  
WHEATON NOT AVBL  
BRAINERD FAIR 33 29 85 CALM 30.08S  
HIBBING FAIR 32 27 81 W6 30.06R  
ALEXANDRIA FAIR 35 31 85 CALM 30.09S  
SAINT CLOUD FAIR 30 28 92 CALM 30.09S  
MINNEAPOLIS CLOUDY 40 33 76 E5 30.11F  

 
 
***** WEATHER ACROSS SOUTH DAKOTA *****  
 
CITY SKY/WX TMP DP RH WIND PRES REMARKS
 
SIOUX FALLS CLOUDY 43 37 79 NE7 30.03F  
BROOKINGS MOCLDY 40 37 89 NE6 30.06  
WATERTOWN CLOUDY 37 35 92 CALM 30.07S  
HURON CLOUDY 39 37 92 NE7 30.06S  
SISSETON N/A 35 34 96 CALM 30.07S  
ABERDEEN FAIR 33 31 92 N5 30.08S  
MITCHELL CLOUDY 42 37 82 E6 30.04F  
PIERRE CLOUDY 35 35 100 NE5 30.04S  
MOBRIDGE FAIR 33 29 85 CALM 30.04R  
RAPID CITY CLOUDY 38 37 97 SE5 30.00S FOG  

 
 
***** SOME WEATHER IN NEARBY STATES *****  
 
CITY SKY/WX TMP DP RH WIND PRES REMARKS
 
GLASGOW MT CLOUDY 39 35 86 NE6 30.03R  
GREAT FALLS MT FAIR 36 32 85 W9 30.03R  
CHEYENNE WY CLOUDY 40 26 57 N3 30.01F  
SCOTTSBLUFF NE LGT RAIN 40 40 100 CALM 30.01R FOG  
OMAHA NE CLOUDY 51 44 77 SE13 29.95F  
DES MOINES IA CLOUDY 46 38 73 SE7 30.03F  
DAVENPORT IA LGT RAIN 45 35 68 S9 30.15S  
CHICAGO IL CLOUDY 43 26 51 S6 30.17F  
EAU CLAIRE WI FAIR 30 25 81 CALM 30.11S  
LA CROSSE WI CLOUDY 39 32 76 CALM 30.12F  

 
 
***** SOME NATIONAL WEATHER *****  
 
CITY SKY/WX TMP DP RH WIND PRES REMARKS
 
LA GUARDIA NY FAIR 40 11 30 W10 30.16R  
RALEIGH NC FAIR 34 28 79 CALM 30.30S  
ATLANTA GA MOCLDY 53 28 38 E6 30.24F  
NEW ORLEANS LA FAIR 57 50 77 S3 30.17F  
OKLAHOMA CITY FAIR 55 55 100 S7 29.95F  
ALBUQUERQUE NM MOCLDY 48 26 42 CALM 30.08F  
SALT LAKE CITY LGT RAIN 44 40 85 SW3 29.99F  
LOS ANGELES CA FAIR 57 53 86 W7 30.13F  
BOISE ID CLOUDY 47 43 86 SE5 29.98S  
SEATTLE WA FAIR 48 39 71 N7 30.20S  

 
 
*** WEATHER ACROSS MANITOBA...SASKATCHEWAN AND ONTARIO ***  
***ONTARIO***  
 
CITY SKY/WX TMP DP RH WIND PRES REMARKS
 
GERALDTON LGT SNOW 18 9 68 N13G20 30.16R DRFTSNOWWCI 4  
THUNDER BAY CLOUDY 36 27 69 NE10G22 30.09R  
SIOUX LOOKOUT CLOUDY 21 3 45 NE6 30.22R WCI 14  
TORONTO CLEAR 32 19 59 SW7 30.11F  
BIG TROUT LK CLEAR -6 -15 65 NW13 30.40R WCI -25  
PICKLE LAKE NOT AVBL  
DRYDEN CLOUDY 23 5 46 NE13G21 30.19R WCI 11  
KENORA MOCLDY 25 7 46 NE15G22 30.19R WCI 12  

 
*** MANITOBA***  
 
CITY SKY/WX TMP DP RH WIND PRES REMARKS
 
BRANDON PTCLDY 23 16 74 NE29 30.29R WCI 6  
DAUPHIN CLEAR 21 12 68 NE16G22 30.40S WCI 7  
ISLAND LAKE NOT AVBL  
PILOT MOUND N/A 28 23 80 N17 N/A WCI 16  
THE PAS CLEAR 12 0 57 NE7 30.54R WCI 2  
THOMPSON CLEAR 0 -9 65 N2 30.59S  
WINNIPEG MOCLDY 25 16 68 N21 30.27R WCI 10  
LYNN LAKE CLEAR -4 -9 77 N3 30.58F  
CHURCHILL CLEAR -6 -13 71 NW23G32 30.44S WCI -31  
GILLAM CLEAR -4 -13 65 W9 30.52S WCI -20  

 
***SASKATCHEWAN***  
 
CITY SKY/WX TMP DP RH WIND PRES REMARKS
 
ESTEVAN CLOUDY 32 27 80 E16G32 30.19R WCI 21  
KINDERSLEY CLOUDY 30 28 93 E21G29 30.24R WCI 17  
LLOYDMINSTER CLEAR 28 25 86 E10 30.32R WCI 19  
PRINCE ALBERT MOCLDY 25 16 68 E16 30.44R WCI 12  
REGINA MOCLDY 32 27 80 E18G30 30.23R WCI 20  
YORKTON CLEAR 23 18 80 NE10 30.34R WCI 12  
N. BATTLEFORD CLOUDY 30 25 80 E16G22 30.37R WCI 19  
LA RONGE CLEAR 12 5 73 NE8 30.52S WCI 1  
SASKATOON MOCLDY 30 27 86 E14 30.36R WCI 20  
SWIFT CURRENT CLOUDY 32 30 93 E23G29 30.15R WCI 19  

 
NOTE: THESE ARE AUTOMATED STATIONS WITH LIMITED QUALITY CONTROL  
"FAIR" INDICATES FEW OR NO CLOUDS BELOW 12,000 FEET WITH NO  
SIGNIFICANT WEATHER AND/OR S TO VISIBILITY
.  
SKY/WX - SKY CONDITION AND SIGNIFICANT WEATHER.  
TMP - AIR TEMPERATURE. DP - DEWPOINT TEMPERATURE.  
RH - RELATIVE HUMIDITY. PRES - PRESSURE.  
HX - HEAT INDEX. WCI - WIND CHILL INDEX.  
$  
 
 
CLICK HERE TO GO TO PREVIOUS BULLETINS.

The Nexlab ND Page
The Nexlab MN Page Main Text Page